This is the latest recevied weather packets stored in our database for station/object OE-11343. If no packets are shown the sender has not sent any weather packets the latest 10 day(s).
| Time | Temp. | Humidity | Pressure | Rain* | Wind** | Luminosity | Snow |
|---|---|---|---|---|---|---|---|
| 1787977525 | 2.78° C | 100% | 712.8 hPa | - | - | 0 W/m² | - |
| 1787976698 | 2.22° C | 100% | 712.9 hPa | - | - | 0 W/m² | - |
| 1787976325 | 1.67° C | 100% | 713 hPa | - | - | 0 W/m² | - |
| 1787975725 | 1.67° C | 100% | 713 hPa | - | - | 0 W/m² | - |
| 1787975125 | 1.67° C | 100% | 713 hPa | - | - | 0 W/m² | - |
| 1787974524 | 2.22° C | 100% | 713 hPa | - | - | 0 W/m² | - |
| 1787973925 | 2.22° C | 100% | 713.2 hPa | - | - | 0 W/m² | - |
| 1787973097 | 2.22° C | 100% | 713.2 hPa | - | - | 0 W/m² | - |
| 1787972725 | 2.78° C | 100% | 713.2 hPa | - | - | 0 W/m² | - |
| 1787972125 | 2.78° C | 100% | 713.2 hPa | - | - | 0 W/m² | - |
| 1787971298 | 2.22° C | 100% | 713.2 hPa | - | - | 0 W/m² | - |
| 1787970925 | 1.67° C | 100% | 713.1 hPa | - | - | 0 W/m² | - |
| 1787970325 | 1.67° C | 100% | 713.1 hPa | - | - | 0 W/m² | - |
| 1787969497 | 1.67° C | 100% | 713.3 hPa | - | - | 0 W/m² | - |
| 1787969124 | 1.67° C | 100% | 713.1 hPa | - | - | 0 W/m² | - |
| 1787968525 | 1.67° C | 100% | 713.3 hPa | - | - | 0 W/m² | - |
| 1787967697 | 1.67° C | 100% | 713.5 hPa | - | - | 0 W/m² | - |
| 1787967325 | 1.67° C | 100% | 713.3 hPa | - | - | 0 W/m² | - |
| 1787966725 | 1.67° C | 100% | 713.3 hPa | - | - | 0 W/m² | - |
| 1787965898 | 1.67° C | 100% | 713.6 hPa | - | - | 0 W/m² | - |
| 1787964925 | 2.78° C | 100% | 713.6 hPa | - | - | 0 W/m² | - |
| 1787964098 | 2.78° C | 100% | 713.5 hPa | - | - | 0 W/m² | - |
| 1787963725 | 3.33° C | 100% | 713.7 hPa | - | - | 0 W/m² | - |
| 1787963124 | 4.44° C | 100% | 714 hPa | - | - | 0 W/m² | - |
| 1787962297 | 5° C | 100% | 713.9 hPa | - | - | 0 W/m² | - |
* Rain since midnight (hover to see other rain measurements)
** Current wind speed in m/s (hover to see current wind gust speed)